• In Italy
  • List of Countries
  • For 7 days
  • Water Temperature
  • Satellite Maps
  • Weather Map
  • Weather Widgets
  • user-avatar
    Login

    Hourly Weather Barra

    Today, 20 September, Wednesday

    Time Temperature Precipitation Wind Pressure Humidity
    00:00 +21°C° 0.6 mm 3 mps 752 mmHg 98%
    01:00 +21°C° 0.6 mm 3 mps 752 mmHg 98%
    02:00 +21°C° 0.2 mm 2 mps 752 mmHg 98%
    03:00 +21°C° 0.2 mm 2 mps 751 mmHg 98%
    04:00 +20°C° 0 mm 2 mps 751 mmHg 97%
    05:00 +20°C° 0.1 mm 2 mps 751 mmHg 97%
    06:00 +22°C° 0.1 mm 1 mps 752 mmHg 96%
    07:00 +22°C° 0.1 mm 1 mps 752 mmHg 95%
    08:00 +24°C° 0 mm 1 mps 752 mmHg 86%
    09:00 +26°C° 0 mm 1 mps 752 mmHg 77%
    10:00 +30°C° 0 mm 1 mps 752 mmHg 59%
    11:00 +30°C° 0 mm 2 mps 751 mmHg 55%
    12:00 +31°C° 0 mm 2 mps 751 mmHg 51%
    13:00 +31°C° 0 mm 3 mps 750 mmHg 48%
    14:00 +30°C° 0 mm 3 mps 750 mmHg 51%
    15:00 +30°C° 0 mm 3 mps 749 mmHg 54%
    16:00 +29°C° 0 mm 3 mps 749 mmHg 57%
    17:00 +27°C° 0 mm 3 mps 749 mmHg 68%
    18:00 +25°C° 0 mm 2 mps 749 mmHg 79%
    19:00 +23°C° 0 mm 2 mps 750 mmHg 89%
    20:00 +21°C° 0 mm 2 mps 750 mmHg 92%
    21:00 +22°C° 0 mm 1 mps 751 mmHg 94%
    22:00 +22°C° 0 mm 1 mps 751 mmHg 96%
    23:00 +21°C° 0 mm 1 mps 751 mmHg 97%

    Tomorrow, 21 September, Thursday

    Time Temperature Precipitation Wind Pressure Humidity
    00:00 +21°C° 0 mm 1 mps 750 mmHg 97%
    01:00 +21°C° 0 mm 1 mps 750 mmHg 97%
    02:00 +21°C° 0 mm 1 mps 750 mmHg 97%
    03:00 +21°C° 0 mm 1 mps 750 mmHg 97%
    04:00 +21°C° 0 mm 1 mps 750 mmHg 97%
    05:00 +21°C° 0 mm 1 mps 750 mmHg 95%
    06:00 +21°C° 0 mm 1 mps 751 mmHg 94%
    07:00 +22°C° 0 mm 1 mps 751 mmHg 93%
    08:00 +24°C° 0 mm 1 mps 751 mmHg 79%
    09:00 +27°C° 0 mm 1 mps 751 mmHg 66%
    10:00 +29°C° 0 mm 1 mps 751 mmHg 52%
    11:00 +30°C° 0 mm 2 mps 751 mmHg 48%
    12:00 +31°C° 0 mm 2 mps 750 mmHg 44%
    13:00 +31°C° 0 mm 2 mps 750 mmHg 41%
    14:00 +31°C° 0 mm 2 mps 749 mmHg 43%
    15:00 +30°C° 0 mm 2 mps 749 mmHg 45%
    16:00 +29°C° 0 mm 2 mps 748 mmHg 48%
    17:00 +27°C° 0 mm 2 mps 749 mmHg 61%
    18:00 +25°C° 0 mm 2 mps 749 mmHg 73%
    19:00 +21°C° 0 mm 2 mps 750 mmHg 86%
    20:00 +21°C° 0 mm 2 mps 750 mmHg 89%
    21:00 +21°C° 0 mm 2 mps 751 mmHg 92%
    22:00 +20°C° 0 mm 2 mps 751 mmHg 95%
    23:00 +21°C° 0 mm 2 mps 751 mmHg 93%

    Day after tomorrow, 22 September, Friday

    Time Temperature Precipitation Wind Pressure Humidity
    00:00 +21°C° 0 mm 2 mps 751 mmHg 91%
    01:00 +23°C° 0 mm 2 mps 751 mmHg 89%
    02:00 +21°C° 0 mm 2 mps 750 mmHg 91%
    03:00 +21°C° 0 mm 1 mps 750 mmHg 93%
    04:00 +21°C° 0 mm 1 mps 750 mmHg 95%
    05:00 +21°C° 0.1 mm 1 mps 751 mmHg 94%
    06:00 +22°C° 0.1 mm 1 mps 751 mmHg 93%
    07:00 +22°C° 0.1 mm 1 mps 752 mmHg 92%
    08:00 +24°C° 0 mm 2 mps 752 mmHg 84%
    09:00 +26°C° 0 mm 2 mps 752 mmHg 76%
    10:00 +28°C° 0 mm 2 mps 752 mmHg 67%
    11:00 +29°C° 0 mm 2 mps 751 mmHg 63%
    12:00 +30°C° 0 mm 2 mps 751 mmHg 58%
    13:00 +31°C° 0 mm 2 mps 750 mmHg 53%
    14:00 +31°C° 0 mm 2 mps 750 mmHg 55%
    15:00 +30°C° 0 mm 3 mps 749 mmHg 57%
    16:00 +30°C° 0 mm 3 mps 749 mmHg 59%
    17:00 +28°C° 0 mm 3 mps 749 mmHg 70%
    18:00 +26°C° 0 mm 3 mps 750 mmHg 80%
    19:00 +24°C° 0 mm 3 mps 750 mmHg 90%
    20:00 +24°C° 0 mm 3 mps 751 mmHg 89%
    21:00 +24°C° 0 mm 2 mps 751 mmHg 88%
    22:00 +24°C° 0 mm 2 mps 752 mmHg 87%
    23:00 +23°C° 0 mm 2 mps 751 mmHg 88%

    23 September, Saturday

    Time Temperature Precipitation Wind Pressure Humidity
    00:00 +23°C° 0 mm 2 mps 751 mmHg 89%
    01:00 +23°C° 0 mm 2 mps 751 mmHg 91%
    02:00 +23°C° 0 mm 2 mps 751 mmHg 92%
    03:00 +21°C° 0 mm 2 mps 750 mmHg 93%
    04:00 +22°C° 0 mm 1 mps 750 mmHg 94%
    05:00 +23°C° 0 mm 1 mps 751 mmHg 93%
    06:00 +23°C° 0 mm 1 mps 751 mmHg 92%
    07:00 +23°C° 0 mm 1 mps 752 mmHg 92%
    08:00 +25°C° 0 mm 2 mps 752 mmHg 83%
    09:00 +26°C° 0 mm 2 mps 752 mmHg 74%
    10:00 +28°C° 0 mm 2 mps 752 mmHg 66%
    11:00 +29°C° 0 mm 2 mps 751 mmHg 60%
    12:00 +30°C° 0 mm 2 mps 751 mmHg 54%
    13:00 +31°C° 0 mm 3 mps 750 mmHg 48%
    14:00 +31°C° 0 mm 3 mps 750 mmHg 51%
    15:00 +30°C° 0 mm 3 mps 749 mmHg 54%
    16:00 +29°C° 0 mm 3 mps 749 mmHg 56%
    17:00 +27°C° 0 mm 2 mps 749 mmHg 67%
    18:00 +25°C° 0 mm 2 mps 750 mmHg 78%
    19:00 +23°C° 0 mm 2 mps 750 mmHg 89%
    20:00 +23°C° 0 mm 2 mps 751 mmHg 91%
    21:00 +22°C° 0 mm 1 mps 751 mmHg 93%
    22:00 +22°C° 0 mm 1 mps 751 mmHg 95%
    23:00 +22°C° 0 mm 1 mps 751 mmHg 95%

    24 September, Sunday

    Time Temperature Precipitation Wind Pressure Humidity
    00:00 +21°C° 0 mm 1 mps 751 mmHg 95%
    01:00 +21°C° 0 mm 1 mps 750 mmHg 95%
    02:00 +21°C° 0 mm 1 mps 750 mmHg 95%
    03:00 +21°C° 0 mm 1 mps 750 mmHg 96%
    04:00 +20°C° 0 mm 1 mps 750 mmHg 96%
    05:00 +21°C° 0 mm 1 mps 750 mmHg 94%
    06:00 +21°C° 0 mm 1 mps 750 mmHg 93%
    07:00 +21°C° 0 mm 1 mps 751 mmHg 91%
    08:00 +24°C° 0 mm 1 mps 751 mmHg 78%
    09:00 +26°C° 0 mm 2 mps 751 mmHg 65%
    10:00 +28°C° 0 mm 2 mps 751 mmHg 52%
    11:00 +29°C° 0 mm 2 mps 751 mmHg 48%
    12:00 +30°C° 0 mm 2 mps 750 mmHg 44%
    13:00 +31°C° 0 mm 3 mps 749 mmHg 40%
    14:00 +30°C° 0 mm 3 mps 749 mmHg 42%
    15:00 +30°C° 0 mm 2 mps 749 mmHg 44%
    16:00 +29°C° 0 mm 2 mps 748 mmHg 46%
    17:00 +27°C° 0 mm 2 mps 749 mmHg 57%
    18:00 +24°C° 0 mm 2 mps 749 mmHg 69%
    19:00 +22°C° 0 mm 1 mps 749 mmHg 80%
    20:00 +21°C° 0 mm 1 mps 750 mmHg 84%
    21:00 +20°C° 0 mm 1 mps 750 mmHg 88%
    22:00 +20°C° 0 mm 1 mps 750 mmHg 92%
    23:00 +19°C° 0 mm 1 mps 750 mmHg 93%

    25 September, Monday

    Time Temperature Precipitation Wind Pressure Humidity
    00:00 +19°C° 0 mm 1 mps 750 mmHg 93%
    01:00 +17°C° 0 mm 0 mps 749 mmHg 93%
    02:00 +19°C° 0 mm 1 mps 749 mmHg 94%
    03:00 +18°C° 0 mm 1 mps 749 mmHg 94%
    04:00 +18°C° 0 mm 1 mps 749 mmHg 95%
    05:00 +19°C° 0 mm 1 mps 750 mmHg 94%
    06:00 +19°C° 0 mm 1 mps 750 mmHg 92%
    07:00 +20°C° 0 mm 1 mps 751 mmHg 91%
    08:00 +22°C° 0 mm 1 mps 751 mmHg 79%
    09:00 +25°C° 0 mm 1 mps 751 mmHg 67%
    10:00 +28°C° 0 mm 2 mps 751 mmHg 55%
    11:00 +29°C° 0 mm 2 mps 750 mmHg 51%
    12:00 +30°C° 0 mm 2 mps 750 mmHg 47%
    13:00 +31°C° 0 mm 2 mps 749 mmHg 43%
    14:00 +30°C° 0 mm 2 mps 749 mmHg 45%
    15:00 +29°C° 0 mm 3 mps 748 mmHg 47%
    16:00 +29°C° 0 mm 3 mps 748 mmHg 50%
    17:00 +26°C° 0 mm 2 mps 748 mmHg 61%
    18:00 +24°C° 0 mm 2 mps 749 mmHg 72%
    19:00 +22°C° 0 mm 1 mps 749 mmHg 83%
    20:00 +21°C° 0 mm 1 mps 750 mmHg 86%
    21:00 +20°C° 0 mm 1 mps 750 mmHg 90%
    22:00 +20°C° 0 mm 1 mps 750 mmHg 93%
    23:00 +20°C° 0 mm 1 mps 750 mmHg 94%
    Show more